Other Surface Observations
Issued by NWS Tucson, AZ

Home | Current Version | Previous Version | Text Only | Print | Product List | Glossary On
Versions: 1 2 3 4 5 6 7 8 9 10 11 12 13 14 15 16 17 18 19 20 21 22 23 24 25 26 27 28 29 30 31 32 33 34 35 36 37 38 39 40 41 42 43 44 45 46 47 48 49 50
821
SXUS55 KTWC 281815
OSOTWC

WEATHER ROUNDUP FOR SOUTHEAST ARIZONA
NATIONAL WEATHER SERVICE TUCSON AZ
1115 AM MST FRI APR 28 2017

AZZ504>506-514-281915-
LOCATION       SKY/WX    TMP DP  RH WIND       PRES   REMARKS
TUCSON         PTSUNNY   79  43  27 W20G28    29.72S
DAVIS-MONTHAN  CLOUDY    80  44  28 W15G25    29.70F
CHILDRENS PARK N/A      N/A N/A  31 SW11              PIMA CO DEQ
ALVERNON/22ND  N/A       77 N/A N/A SW8               PIMA CO DEQ
CHERRY/GLENN   N/A      N/A N/A N/A N/A               PIMA CO DEQ
TANGERINE      N/A       76 N/A N/A SW10              PIMA CO DEQ
CONTL RANCH    N/A       78  44  30 SW9               PIMA CO DEQ
GRANT/1ST      N/A       76  41  29 SW9               PIMA CO DEQ
CRAYCROFT/22ND N/A       76  42  30 N/A               PIMA CO DEQ
GOLFLINKS/KOLB N/A      N/A N/A N/A N/A               PIMA CO DEQ
AJO/12TH       N/A       78  43  29 SW13              PIMA CO DEQ
FAIRGROUNDS    N/A       75 N/A N/A SW16              PIMA CO DEQ
SAGUARO        N/A       77  42  29 W9G16             *SABINO CYN
SAN CARLOS     N/A       70  44  39 SW10G17           *SAN CARLOS
GREEN VALLEY   N/A       76  43  31 SW17              PIMA CO DEQ
HORSE CAMP CYN N/A       67  43  42 SW17G28           *ARAVAIPA CYN
RINCON MTNS    N/A       51  38  60 SW5G19            *NR MANNING CAMP
$$

AZZ509>511-281915-
LOCATION       SKY/WX    TMP DP  RH WIND       PRES   REMARKS
SAFFORD        CLOUDY    77  39  25 W13G23    29.65F
STRAY HORSE    N/A       44  36  74 N/A               *
TRAIL CABIN    N/A       55  40  57 W8G15             *N OF GRANVILLE
BLACK HILLS    NOT AVBL
DRY LAKE       N/A       46  38  73 W8G19             *NATANES MTNS
NOON CREEK     N/A       69  38  32 SW6G17            *PINALENO MTNS
COLUMBINE      N/A       40  35  83 SW10G18           *PINALENO MTNS
GUTHRIE        N/A       59  38  46 W11G23            *SW OF GUTHRIE
$$

AZZ502-503-513-281915-
LOCATION       SKY/WX    TMP DP  RH WIND       PRES   REMARKS
NOGALES        MOSUNNY   76  45  33 SW16G26   29.79S
SELLS          N/A       77  48  36 N11G18            *
SASABE         N/A       74  47  38 S15G25            *ALTAR VLY
HOPKINS        N/A       59  42  53 W11G30            *SANTA RITA MTNS
CARR CYN       N/A       71  42  35 NE4G22            *W OF HEREFORD
$$

AZZ507-508-512-281915-
LOCATION       SKY/WX    TMP DP  RH WIND       PRES   REMARKS
SIERRA VISTA   PTSUNNY   71  42  34 SW13G26   29.79F
DOUGLAS        MOSUNNY   75  41  29 SW32G39   29.77F
EMPIRE MTNS    NOT AVBL
MULESHOE RANCH N/A       69  42  37 W12G26            *PRESERVE
HEADQUARTERS   NOT AVBL
$$

.............................NOTES.............................
THIS IS AN AUTOMATED COLLECTIVE WITH MINIMAL QUALITY CONTROL.
PIMA CO DEQ SITES HAVE NONSTANDARD WIND SENSOR HEIGHTS.
PIMA CO DEQ SITES DO NOT REPORT WIND GUSTS.
* INDICATES WIND SENSORS LOCATED AT 20 FEET INSTEAD OF 33 FEET.
..............................KEY..............................
SKY/WX - SKY CONDITION/WEATHER
TMP    - TEMPERATURE IN FAHRENHEIT
DP     - DEWPOINT IN FAHRENHEIT
RH     - RELATIVE HUMIDITY IN PERCENT
WIND   - DIRECTION AND SPEED IN MILES PER HOUR (MPH)
VRB    - VARIABLE WIND DIRECTION
PRES   - MEAN SEA LEVEL PRESSURE IN INCHES OF MERCURY
         F - FALLING PRESSURE   R - RISING PRESSURE
         S - STEADY PRESSURE
VSB    - VISIBILITY IN MILES
HX     - HEAT INDEX IN FAHRENHEIT
WCI    - WIND CHILL INDEX IN FAHRENHEIT
N/A    - NOT AVAILABLE
AFB    - AIR FORCE BASE
         DAVIS-MONTHAN IS DAVIS-MONTHAN AIR FORCE BASE
CYN    - CANYON
MTNS   - MOUNTAINS
NCA    - NATIONAL CONSERVATION AREA
NR     - NEAR
VLY    - VALLEY
CONTL  - CONTINENTAL
PIMA CO DEQ - PIMA COUNTY DEPT OF ENVIRONMENTAL QUALITY



USA.gov is the U.S. government's official web portal to all federal, state and local government web resources and services.